User: anonymous   Login
Location: Unspecified
(0.0000°N, 0.0000°E)
Time: 20:49:55
(UTC+00:00)
Language:

GNOMES-3 - Orbit

View from above orbital plane
View from above orbital plane
View from above satellite
View from above satellite

Ground track
Ground track

The orbit is defined by the following mean orbital elements,

1 52158U          26145.46368416 +.00000000 +00000-0 +20868-3 0 00007
2 52158  97.8233 222.1795 0011763  44.8038 315.4125 14.84986769    01
Epoch (UTC): 25 May 2026 11:07:42
Eccentricity: 0.0011763
inclination: 97.8233°
perigee height: 605 km
apogee height: 622 km
right ascension of ascending node: 222.1795°
argument of perigee: 44.8038°
revolutions per day: 14.84986769
mean anomaly at epoch: 315.4125°

The dashed part of the orbit path shows where the satellite is in the earth's shadow,  

DLR